{"data":{"norad_id":62634,"epoch":"2026-05-24T23:21:52.545312Z","epoch_age_seconds":77318,"freshness":"FRESH","line1":"1 62634U 25009AB  26144.97352483  .00007351  00000+0  22308-3 0  9998","line2":"2 62634  97.4021 229.4428 0002727  64.1943 295.9581 15.34396269 75528","mean_motion":15.34396269,"eccentricity":0.0002727,"inclination_deg":97.4021,"raan_deg":229.4428,"arg_perigee_deg":64.1943,"mean_anomaly_deg":295.9581,"bstar":0.00022308,"rev_number":7552,"period_min":93.847986279221,"perigee_km":460.84882939028,"apogee_km":464.57982970542,"semimajor_km":6840.8513295478,"source":"CELESTRAK","updated_at":"2026-05-25T13:38:13.337798Z"}}